,,,PA_Meas_PMT16A,,PR_Meas_QMR101_102,,RH_Meas_QMH101,,SR_Meas_QMS101,,TA_Meas_QMH101,,GenWind,,GenWind,
date,time,status,PA,status,PR,status,RH,status,SR,status,TA,status,DirAvg,status,SpdAvg,
2011-09-30, 00:00:04,VALID,1001.57,VALID,0,VALID,88.6943,VALID,0,VALID,24.0525,VALID,50,VALID,0.408984,
2011-09-30, 00:01:04,VALID,1001.57,VALID,0,VALID,88.5036,VALID,0,VALID,24.0329,VALID,50,VALID,0.393359,
2011-09-30, 00:02:04,VALID,1001.52,VALID,0,VALID,88.5417,VALID,0,VALID,23.9921,VALID,50,VALID,0.260547,
2011-09-30, 00:03:04,VALID,1001.51,VALID,0,VALID,88.5799,VALID,0,VALID,23.9939,VALID,50,VALID,0.0605469,
2011-09-30, 00:04:04,VALID,1001.51,VALID,0,VALID,88.5799,VALID,0,VALID,23.9531,VALID,50,VALID,0.232812,
2011-09-30, 00:05:04,VALID,1001.49,VALID,0,VALID,88.6791,VALID,0,VALID,23.9744,VALID,50,VALID,0.0574219,
2011-09-30, 00:06:04,VALID,1001.46,VALID,0,VALID,88.7325,VALID,0,VALID,23.9336,VALID,50,VALID,0.331641,
2011-09-30, 00:07:04,VALID,1001.45,VALID,0,VALID,88.7859,VALID,0.104696,VALID,23.914,VALID,50,VALID,0.346484,
2011-09-30, 00:08:04,VALID,1001.41,VALID,0,VALID,89.0148,VALID,0,VALID,23.914,VALID,50,VALID,0.385156,
2011-09-30, 00:09:04,VALID,1001.4,VALID,0,VALID,89.175,VALID,0,VALID,23.8945,VALID,50,VALID,0.501953,
2011-09-30, 00:10:04,VALID,1001.41,VALID,0,VALID,89.4268,VALID,0,VALID,23.875,VALID,50,VALID,0.46875,
2011-09-30, 00:11:04,VALID,1001.42,VALID,0,VALID,89.5946,VALID,0,VALID,23.8768,VALID,50,VALID,0.318359,
2011-09-30, 00:12:04,VALID,1001.42,VALID,0,VALID,89.5641,VALID,0,VALID,23.8573,VALID,50,VALID,0.270312,
2011-09-30, 00:13:04,VALID,1001.42,VALID,0,VALID,89.5641,VALID,0,VALID,23.8573,VALID,50,VALID,0.349219,
2011-09-30, 00:14:04,VALID,1001.43,VALID,0,VALID,89.5336,VALID,0,VALID,23.8573,VALID,50,VALID,0.364062,
2011-09-30, 00:15:04,VALID,1001.41,VALID,0,VALID,89.4954,VALID,0,VALID,23.8768,VALID,50,VALID,0.380078,
2011-09-30, 00:16:04,VALID,1001.4,VALID,0,VALID,89.5183,VALID,0,VALID,23.8573,VALID,50,VALID,0.470703,
2011-09-30, 00:17:04,VALID,1001.42,VALID,0,VALID,89.5412,VALID,0,VALID,23.8768,VALID,50,VALID,0.548828,
2011-09-30, 00:18:04,VALID,1001.39,VALID,0,VALID,89.5641,VALID,0,VALID,23.8573,VALID,50,VALID,0.621484,
2011-09-30, 00:19:04,VALID,1001.4,VALID,0,VALID,89.5489,VALID,0,VALID,23.8378,VALID,50,VALID,0.662109,
2011-09-30, 00:20:04,VALID,1001.43,VALID,0,VALID,89.6023,VALID,0,VALID,23.8183,VALID,50,VALID,0.739453,
2011-09-30, 00:21:04,VALID,1001.38,VALID,0,VALID,89.6328,VALID,0,VALID,23.797,VALID,50,VALID,0.76875,
2011-09-30, 00:22:04,VALID,1001.4,VALID,0,VALID,89.6557,VALID,0,VALID,23.7988,VALID,50,VALID,0.723828,
2011-09-30, 00:23:04,VALID,1001.43,VALID,0,VALID,89.6557,VALID,0,VALID,23.7988,VALID,50,VALID,0.470313,
2011-09-30, 00:24:04,VALID,1001.39,VALID,0,VALID,89.732,VALID,0,VALID,23.7579,VALID,50,VALID,0.443359,
2011-09-30, 00:25:04,VALID,1001.42,VALID,0,VALID,89.8235,VALID,0,VALID,23.7597,VALID,50,VALID,0.315234,
2011-09-30, 00:26:05,VALID,1001.39,VALID,0,VALID,89.8617,VALID,0,VALID,23.7384,VALID,50,VALID,0.269531,
2011-09-30, 00:27:05,VALID,1001.39,VALID,0,VALID,89.9303,VALID,0,VALID,23.7597,VALID,50,VALID,0.283203,
2011-09-30, 00:28:05,VALID,1001.41,VALID,0,VALID,90.0143,VALID,0,VALID,23.7384,VALID,50,VALID,0.498437,
2011-09-30, 00:29:05,VALID,1001.42,VALID,0,VALID,90.0753,VALID,0,VALID,23.7597,VALID,50,VALID,0.558984,
2011-09-30, 00:30:05,VALID,1001.41,VALID,0,VALID,89.9914,VALID,0,VALID,23.7189,VALID,50,VALID,0.776563,
2011-09-30, 00:31:05,VALID,1001.4,VALID,0,VALID,90.1821,VALID,0,VALID,23.7597,VALID,50,VALID,0.792188,
2011-09-30, 00:32:05,VALID,1001.42,VALID,0,VALID,90.3194,VALID,0,VALID,23.7384,VALID,50,VALID,0.871484,
2011-09-30, 00:33:05,VALID,1001.41,VALID,0,VALID,90.4873,VALID,0,VALID,23.7384,VALID,50,VALID,0.879297,
2011-09-30, 00:34:05,VALID,1001.42,VALID,0,VALID,90.7009,VALID,0,VALID,23.7597,VALID,50,VALID,1.06992,
2011-09-30, 00:35:05,VALID,1001.44,VALID,0,VALID,90.9527,VALID,0,VALID,23.7988,VALID,50,VALID,1.31133,
2011-09-30, 00:36:05,VALID,1001.46,VALID,0,VALID,91.0671,VALID,0,VALID,23.7988,VALID,50,VALID,1.07031,
2011-09-30, 00:37:05,VALID,1001.42,VALID,0,VALID,91.0671,VALID,0.104696,VALID,23.8378,VALID,50,VALID,0.923047,
2011-09-30, 00:38:05,VALID,1001.41,VALID,0,VALID,90.9909,VALID,0,VALID,23.8165,VALID,50,VALID,0.751953,
2011-09-30, 00:39:05,VALID,1001.4,VALID,0,VALID,90.9909,VALID,0,VALID,23.8378,VALID,50,VALID,0.840625,
2011-09-30, 00:40:05,VALID,1001.36,VALID,0,VALID,90.9909,VALID,0,VALID,23.797,VALID,50,VALID,0.796094,
2011-09-30, 00:41:05,VALID,1001.35,VALID,0,VALID,90.9298,VALID,0,VALID,23.7988,VALID,50,VALID,0.801172,
2011-09-30, 00:42:05,VALID,1001.34,VALID,0,VALID,90.8764,VALID,0,VALID,23.7793,VALID,50,VALID,0.710547,
2011-09-30, 00:43:05,VALID,1001.33,VALID,0,VALID,90.823,VALID,0,VALID,23.7793,VALID,50,VALID,0.709375,
2011-09-30, 00:44:05,VALID,1001.3,VALID,0,VALID,90.7391,VALID,0,VALID,23.7793,VALID,50,VALID,0.603125,
2011-09-30, 00:45:05,VALID,1001.29,VALID,0,VALID,90.6017,VALID,0,VALID,23.7579,VALID,50,VALID,0.660937,
2011-09-30, 00:46:05,VALID,1001.26,VALID,0,VALID,90.411,VALID,0,VALID,23.7597,VALID,50,VALID,0.661719,
2011-09-30, 00:47:05,VALID,1001.24,VALID,0,VALID,90.35,VALID,0,VALID,23.7402,VALID,50,VALID,0.697266,
2011-09-30, 00:48:05,VALID,1001.21,VALID,0,VALID,90.3576,VALID,0,VALID,23.7402,VALID,50,VALID,0.642969,
2011-09-30, 00:49:05,VALID,1001.15,VALID,0,VALID,90.3881,VALID,0,VALID,23.7597,VALID,50,VALID,0.591797,
2011-09-30, 00:50:05,VALID,1001.16,VALID,0,VALID,90.4491,VALID,0,VALID,23.7207,VALID,50,VALID,0.582031,
2011-09-30, 00:51:05,VALID,1001.15,VALID,0,VALID,90.5483,VALID,0,VALID,23.7402,VALID,50,VALID,0.512109,
2011-09-30, 00:52:05,VALID,1001.11,VALID,0,VALID,90.6246,VALID,0,VALID,23.7402,VALID,50,VALID,0.478125,
2011-09-30, 00:53:05,VALID,1001.1,VALID,0,VALID,90.7391,VALID,0,VALID,23.7402,VALID,50,VALID,0.530078,
2011-09-30, 00:54:05,VALID,1001.1,VALID,0,VALID,90.823,VALID,0,VALID,23.7402,VALID,50,VALID,0.316016,
2011-09-30, 00:55:05,VALID,1001.07,VALID,0,VALID,90.884,VALID,0.104696,VALID,23.7189,VALID,50,VALID,0.283203,
2011-09-30, 00:56:05,VALID,1001.06,VALID,0,VALID,90.9069,VALID,0,VALID,23.7189,VALID,50,VALID,0.175781,
2011-09-30, 00:57:05,VALID,1001.05,VALID,0,VALID,90.884,VALID,0,VALID,23.7402,VALID,50,VALID,0.134375,
2011-09-30, 00:58:05,VALID,1001.02,VALID,0,VALID,90.8383,VALID,0,VALID,23.7189,VALID,50,VALID,0,
2011-09-30, 00:59:05,VALID,1000.99,VALID,0,VALID,90.7696,VALID,0,VALID,23.6994,VALID,50,VALID,0,
2011-09-30, 01:00:05,VALID,1000.98,VALID,0,VALID,90.7314,VALID,0,VALID,23.6817,VALID,50,VALID,0.1125,
2011-09-30, 01:01:05,VALID,1000.94,VALID,0,VALID,90.6933,VALID,0,VALID,23.6799,VALID,50,VALID,0.235547,
2011-09-30, 01:02:05,VALID,1000.91,VALID,0,VALID,90.5636,VALID,0,VALID,23.6994,VALID,50,VALID,0.203125,
2011-09-30, 01:03:05,VALID,1000.89,VALID,0,VALID,90.4339,VALID,0,VALID,23.7402,VALID,50,VALID,0.267188,
2011-09-30, 01:04:05,VALID,1000.87,VALID,0,VALID,90.1897,VALID,0,VALID,23.7384,VALID,50,VALID,0.303516,
2011-09-30, 01:05:05,VALID,1000.85,VALID,0,VALID,89.9227,VALID,0.104696,VALID,23.7775,VALID,80,VALID,0.669141,
2011-09-30, 01:06:05,VALID,1000.83,VALID,0,VALID,89.5641,VALID,0,VALID,23.8165,VALID,129,VALID,0.773828,
2011-09-30, 01:07:05,VALID,1000.79,VALID,0,VALID,89.0071,VALID,0,VALID,23.8945,VALID,131,VALID,0.968359,
2011-09-30, 01:08:05,VALID,1000.79,VALID,0,VALID,88.2518,VALID,0,VALID,24.0116,VALID,150,VALID,1.01719,
2011-09-30, 01:09:05,VALID,1000.8,VALID,0,VALID,87.4126,VALID,0,VALID,24.15,VALID,150,VALID,1.08164,
2011-09-30, 01:10:05,VALID,1000.79,VALID,0,VALID,86.7793,VALID,0,VALID,24.2476,VALID,150,VALID,0.884766,
2011-09-30, 01:11:05,VALID,1000.8,VALID,0,VALID,86.3673,VALID,0,VALID,24.3043,VALID,150,VALID,0.553125,
2011-09-30, 01:12:05,VALID,1000.77,VALID,0,VALID,86.1613,VALID,0,VALID,24.3238,VALID,150,VALID,0.644141,
2011-09-30, 01:13:05,VALID,1000.78,VALID,0,VALID,86.0545,VALID,0,VALID,24.3433,VALID,150,VALID,0.604688,
2011-09-30, 01:14:05,VALID,1000.79,VALID,0,VALID,86.0011,VALID,0,VALID,24.3842,VALID,150,VALID,0.554688,
2011-09-30, 01:15:05,VALID,1000.77,VALID,0,VALID,86.0087,VALID,0,VALID,24.3824,VALID,150,VALID,0.326562,
2011-09-30, 01:16:05,VALID,1000.74,VALID,0,VALID,85.9553,VALID,0,VALID,24.4037,VALID,150,VALID,0.386328,
2011-09-30, 01:17:05,VALID,1000.73,VALID,0,VALID,85.9477,VALID,0,VALID,24.4019,VALID,150,VALID,0.348437,
2011-09-30, 01:18:05,VALID,1000.73,VALID,0,VALID,85.7188,VALID,0,VALID,24.3824,VALID,150,VALID,0.614453,
2011-09-30, 01:19:05,VALID,1000.73,VALID,0,VALID,84.9863,VALID,0,VALID,24.3842,VALID,127,VALID,1.15391,
2011-09-30, 01:20:05,VALID,1000.73,VALID,0,VALID,84.7117,VALID,0,VALID,24.3824,VALID,127,VALID,0.897266,
2011-09-30, 01:21:05,VALID,1000.7,VALID,0,VALID,84.7117,VALID,0,VALID,24.4019,VALID,127,VALID,0.690234,
2011-09-30, 01:22:05,VALID,1000.71,VALID,0,VALID,84.498,VALID,0,VALID,24.3824,VALID,127,VALID,0.651953,
2011-09-30, 01:23:05,VALID,1000.69,VALID,0,VALID,84.6277,VALID,0,VALID,24.3629,VALID,127,VALID,0.723047,
2011-09-30, 01:24:05,VALID,1000.71,VALID,0,VALID,84.8643,VALID,0,VALID,24.4037,VALID,127,VALID,0.271875,
2011-09-30, 01:25:05,VALID,1000.7,VALID,0,VALID,85.116,VALID,0,VALID,24.3629,VALID,127,VALID,0.348047,
2011-09-30, 01:26:05,VALID,1000.71,VALID,0,VALID,85.5128,VALID,0,VALID,24.3433,VALID,127,VALID,0.259375,
2011-09-30, 01:27:05,VALID,1000.65,VALID,0,VALID,85.7188,VALID,0,VALID,24.3238,VALID,127,VALID,0.278125,
2011-09-30, 01:28:05,VALID,1000.64,VALID,0,VALID,85.9019,VALID,0,VALID,24.3043,VALID,127,VALID,0.171094,
2011-09-30, 01:29:05,VALID,1000.63,VALID,0,VALID,86.146,VALID,0,VALID,24.3062,VALID,127,VALID,0.123828,
2011-09-30, 01:30:05,VALID,1000.6,VALID,0,VALID,86.23,VALID,0,VALID,24.2866,VALID,127,VALID,0.106641,
2011-09-30, 01:31:05,VALID,1000.61,VALID,0,VALID,86.2834,VALID,0,VALID,24.2866,VALID,127,VALID,0.16875,
2011-09-30, 01:32:05,VALID,1000.6,VALID,0,VALID,86.2757,VALID,0,VALID,24.2671,VALID,127,VALID,0.619531,
2011-09-30, 01:33:05,VALID,1000.59,VALID,0,VALID,85.8027,VALID,0,VALID,24.2866,VALID,127,VALID,0.414453,
2011-09-30, 01:34:05,VALID,1000.56,VALID,0,VALID,85.6043,VALID,0.104696,VALID,24.2653,VALID,127,VALID,0.679688,
2011-09-30, 01:35:05,VALID,1000.56,VALID,0,VALID,85.6272,VALID,0,VALID,24.3043,VALID,127,VALID,0.511719,
2011-09-30, 01:36:05,VALID,1000.59,VALID,0,VALID,85.2686,VALID,0,VALID,24.3452,VALID,127,VALID,0.554297,
2011-09-30, 01:37:05,VALID,1000.6,VALID,0,VALID,85.261,VALID,0,VALID,24.3452,VALID,127,VALID,0.176563,
2011-09-30, 01:38:05,VALID,1000.59,VALID,0,VALID,85.467,VALID,0,VALID,24.3238,VALID,127,VALID,0.13125,
2011-09-30, 01:39:05,VALID,1000.61,VALID,0,VALID,85.879,VALID,0,VALID,24.3043,VALID,127,VALID,0.159375,
2011-09-30, 01:40:05,VALID,1000.65,VALID,0,VALID,85.9477,VALID,0,VALID,24.3062,VALID,127,VALID,0.308203,
2011-09-30, 01:41:05,VALID,1000.65,VALID,0,VALID,86.2071,VALID,0,VALID,24.2866,VALID,127,VALID,0.416016,
2011-09-30, 01:42:05,VALID,1000.63,VALID,0,VALID,86.3444,VALID,0,VALID,24.2671,VALID,127,VALID,0.323828,
2011-09-30, 01:43:05,VALID,1000.64,VALID,0,VALID,86.3368,VALID,0,VALID,24.2476,VALID,127,VALID,0.352734,
2011-09-30, 01:44:05,VALID,1000.61,VALID,0,VALID,86.2605,VALID,0,VALID,24.2067,VALID,127,VALID,0.161328,
2011-09-30, 01:45:05,VALID,1000.6,VALID,0,VALID,86.3826,VALID,0,VALID,24.2281,VALID,127,VALID,0.0375,
2011-09-30, 01:46:05,VALID,1000.6,VALID,0,VALID,86.5962,VALID,0,VALID,24.2086,VALID,127,VALID,0,
2011-09-30, 01:47:05,VALID,1000.59,VALID,0,VALID,86.5962,VALID,0,VALID,24.1696,VALID,127,VALID,0,
2011-09-30, 01:48:05,VALID,1000.59,VALID,0,VALID,86.9319,VALID,0,VALID,24.1287,VALID,127,VALID,0.265625,
2011-09-30, 01:49:05,VALID,1000.59,VALID,0,VALID,87.6796,VALID,0,VALID,24.0915,VALID,127,VALID,0.453516,
2011-09-30, 01:50:05,VALID,1000.56,VALID,0,VALID,88.2747,VALID,0,VALID,24.0329,VALID,127,VALID,0.364844,
2011-09-30, 01:51:05,VALID,1000.58,VALID,0,VALID,88.4578,VALID,0,VALID,23.9726,VALID,127,VALID,0.30625,
2011-09-30, 01:52:05,VALID,1000.59,VALID,0,VALID,88.6638,VALID,0,VALID,23.9549,VALID,127,VALID,0.369141,
2011-09-30, 01:53:05,VALID,1000.57,VALID,0,VALID,88.824,VALID,0,VALID,23.9354,VALID,127,VALID,0.365234,
2011-09-30, 01:54:05,VALID,1000.53,VALID,0,VALID,89.175,VALID,0.104696,VALID,23.9159,VALID,127,VALID,0.357422,
2011-09-30, 01:55:05,VALID,1000.53,VALID,0,VALID,89.442,VALID,0.104696,VALID,23.875,VALID,127,VALID,0.363672,
2011-09-30, 01:56:05,VALID,1000.55,VALID,0,VALID,89.6099,VALID,0,VALID,23.8555,VALID,127,VALID,0.387891,
2011-09-30, 01:57:05,VALID,1000.52,VALID,0,VALID,89.7701,VALID,0,VALID,23.8573,VALID,127,VALID,0.359375,
2011-09-30, 01:58:05,VALID,1000.54,VALID,0,VALID,89.9761,VALID,0,VALID,23.8165,VALID,127,VALID,0.460938,
2011-09-30, 01:59:05,VALID,1000.54,VALID,0,VALID,90.2203,VALID,0,VALID,23.7775,VALID,127,VALID,0.414453,
2011-09-30, 02:00:05,VALID,1000.54,VALID,0,VALID,90.3728,VALID,0,VALID,23.7597,VALID,127,VALID,0.431641,
2011-09-30, 02:01:05,VALID,1000.52,VALID,0,VALID,90.4339,VALID,0.104696,VALID,23.7189,VALID,127,VALID,0.408203,
2011-09-30, 02:02:05,VALID,1000.52,VALID,0,VALID,90.4949,VALID,0,VALID,23.7207,VALID,127,VALID,0.423047,
2011-09-30, 02:03:05,VALID,1000.52,VALID,0,VALID,90.5483,VALID,0,VALID,23.6799,VALID,127,VALID,0.388672,
2011-09-30, 02:04:05,VALID,1000.51,VALID,0,VALID,90.5331,VALID,0,VALID,23.6604,VALID,127,VALID,0.489844,
2011-09-30, 02:05:05,VALID,1000.51,VALID,0,VALID,90.3652,VALID,0,VALID,23.6994,VALID,127,VALID,0.460156,
2011-09-30, 02:06:05,VALID,1000.44,VALID,0,VALID,89.9761,VALID,0,VALID,23.7012,VALID,127,VALID,0.331641,
2011-09-30, 02:07:05,VALID,1000.44,VALID,0,VALID,89.5946,VALID,0,VALID,23.7207,VALID,127,VALID,0.266016,
2011-09-30, 02:08:05,VALID,1000.43,VALID,0,VALID,89.3505,VALID,0,VALID,23.7597,VALID,127,VALID,0.250391,
2011-09-30, 02:09:05,VALID,1000.41,VALID,0,VALID,89.3047,VALID,0,VALID,23.7988,VALID,127,VALID,0.276953,
2011-09-30, 02:10:05,VALID,1000.39,VALID,0,VALID,89.2818,VALID,0,VALID,23.797,VALID,127,VALID,0.412109,
2011-09-30, 02:11:05,VALID,1000.39,VALID,0,VALID,89.236,VALID,0,VALID,23.8165,VALID,127,VALID,0.284766,
2011-09-30, 02:12:05,VALID,1000.38,VALID,0,VALID,89.1063,VALID,0,VALID,23.8165,VALID,127,VALID,0.279687,
2011-09-30, 02:13:05,VALID,1000.39,VALID,0,VALID,89.0377,VALID,0,VALID,23.7775,VALID,127,VALID,0.214062,
2011-09-30, 02:14:05,VALID,1000.39,VALID,0,VALID,89.0758,VALID,0,VALID,23.7384,VALID,127,VALID,0.172656,
2011-09-30, 02:15:05,VALID,1000.38,VALID,0,VALID,89.3428,VALID,0,VALID,23.7384,VALID,127,VALID,0.158203,
2011-09-30, 02:16:05,VALID,1000.37,VALID,0,VALID,89.6251,VALID,0,VALID,23.7189,VALID,127,VALID,0.282422,
2011-09-30, 02:17:05,VALID,1000.37,VALID,0,VALID,89.7549,VALID,0,VALID,23.6994,VALID,127,VALID,0.487109,
2011-09-30, 02:18:05,VALID,1000.35,VALID,0,VALID,89.793,VALID,0,VALID,23.7207,VALID,127,VALID,0.520703,
2011-09-30, 02:19:05,VALID,1000.36,VALID,0,VALID,89.7701,VALID,0,VALID,23.7402,VALID,127,VALID,0.496484,
2011-09-30, 02:20:05,VALID,1000.36,VALID,0,VALID,89.732,VALID,0,VALID,23.7793,VALID,127,VALID,0.628125,
2011-09-30, 02:21:05,VALID,1000.31,VALID,0,VALID,89.7549,VALID,0,VALID,23.7988,VALID,127,VALID,0.614453,
2011-09-30, 02:22:05,VALID,1000.27,VALID,0,VALID,89.8693,VALID,0,VALID,23.7579,VALID,127,VALID,0.819531,
2011-09-30, 02:23:05,VALID,1000.25,VALID,0,VALID,90.0448,VALID,0,VALID,23.7597,VALID,127,VALID,0.865234,
2011-09-30, 02:24:05,VALID,1000.27,VALID,0,VALID,90.2126,VALID,0,VALID,23.7384,VALID,127,VALID,0.810938,
2011-09-30, 02:25:05,VALID,1000.25,VALID,0,VALID,90.3194,VALID,0,VALID,23.7402,VALID,127,VALID,0.779688,
2011-09-30, 02:26:05,VALID,1000.21,VALID,0,VALID,90.4339,VALID,0,VALID,23.7207,VALID,127,VALID,0.715234,
2011-09-30, 02:27:05,VALID,1000.25,VALID,0,VALID,90.4568,VALID,0,VALID,23.6817,VALID,127,VALID,0.633594,
2011-09-30, 02:28:05,VALID,1000.21,VALID,0,VALID,90.5026,VALID,0,VALID,23.6427,VALID,127,VALID,0.551953,
2011-09-30, 02:29:05,VALID,1000.23,VALID,0,VALID,90.7467,VALID,0,VALID,23.6232,VALID,127,VALID,0.561328,
2011-09-30, 02:30:05,VALID,1000.26,VALID,0,VALID,90.9909,VALID,0,VALID,23.6019,VALID,127,VALID,0.5875,
2011-09-30, 02:31:05,VALID,1000.26,VALID,0,VALID,91.2121,VALID,0,VALID,23.6036,VALID,127,VALID,0.558594,
2011-09-30, 02:32:05,VALID,1000.3,VALID,0,VALID,91.3342,VALID,0,VALID,23.5841,VALID,127,VALID,0.519922,
2011-09-30, 02:33:05,VALID,1000.32,VALID,0,VALID,91.4639,VALID,0,VALID,23.5646,VALID,127,VALID,0.530469,
2011-09-30, 02:34:05,VALID,1000.33,VALID,0,VALID,91.5173,VALID,0,VALID,23.5451,VALID,127,VALID,0.538672,
2011-09-30, 02:35:05,VALID,1000.35,VALID,0,VALID,91.5402,VALID,0.104696,VALID,23.5043,VALID,127,VALID,0.519922,
2011-09-30, 02:36:05,VALID,1000.35,VALID,0,VALID,91.586,VALID,0,VALID,23.4653,VALID,127,VALID,0.569531,
2011-09-30, 02:37:05,VALID,1000.37,VALID,0,VALID,91.6241,VALID,0,VALID,23.428,VALID,127,VALID,0.4875,
2011-09-30, 02:38:05,VALID,1000.34,VALID,0,VALID,91.6775,VALID,0,VALID,23.389,VALID,127,VALID,0.312891,
2011-09-30, 02:39:05,VALID,1000.35,VALID,0,VALID,91.7309,VALID,0,VALID,23.35,VALID,127,VALID,0.169141,
2011-09-30, 02:40:05,VALID,1000.34,VALID,0,VALID,91.8301,VALID,0,VALID,23.3092,VALID,127,VALID,0.221484,
2011-09-30, 02:41:05,VALID,1000.33,VALID,0,VALID,91.9369,VALID,0,VALID,23.2897,VALID,127,VALID,0.148047,
2011-09-30, 02:42:05,VALID,1000.35,VALID,0,VALID,91.9751,VALID,0,VALID,23.2702,VALID,127,VALID,0.181641,
2011-09-30, 02:43:05,VALID,1000.32,VALID,0,VALID,92.0361,VALID,0,VALID,23.2507,VALID,127,VALID,0.0699219,
2011-09-30, 02:44:05,VALID,1000.31,VALID,0,VALID,92.0819,VALID,0,VALID,23.2312,VALID,127,VALID,0.0601562,
2011-09-30, 02:45:05,VALID,1000.33,VALID,0,VALID,92.0971,VALID,0,VALID,23.2329,VALID,127,VALID,0,
2011-09-30, 02:46:05,VALID,1000.33,VALID,0,VALID,92.0971,VALID,0,VALID,23.1921,VALID,127,VALID,0,
2011-09-30, 02:47:05,VALID,1000.31,VALID,0,VALID,92.0743,VALID,0.104696,VALID,23.1726,VALID,127,VALID,0,
2011-09-30, 02:48:05,VALID,1000.38,VALID,0,VALID,92.0819,VALID,0,VALID,23.1744,VALID,127,VALID,0,
2011-09-30, 02:49:05,VALID,1000.34,VALID,0,VALID,92.1353,VALID,0.104696,VALID,23.1531,VALID,127,VALID,0,
2011-09-30, 02:50:05,VALID,1000.37,VALID,0,VALID,92.1963,VALID,0,VALID,23.1531,VALID,127,VALID,0,
2011-09-30, 02:51:05,VALID,1000.38,VALID,0,VALID,92.2726,VALID,0,VALID,23.1531,VALID,127,VALID,0,
2011-09-30, 02:52:05,VALID,1000.37,VALID,0,VALID,92.326,VALID,0,VALID,23.1744,VALID,127,VALID,0,
2011-09-30, 02:53:05,VALID,1000.35,VALID,0,VALID,92.4405,VALID,0,VALID,23.1726,VALID,127,VALID,0.163672,
2011-09-30, 02:54:05,VALID,1000.33,VALID,0,VALID,92.4939,VALID,0,VALID,23.1921,VALID,127,VALID,0.417188,
2011-09-30, 02:55:05,VALID,1000.35,VALID,0,VALID,92.4939,VALID,0.104696,VALID,23.2117,VALID,127,VALID,0.744922,
2011-09-30, 02:56:05,VALID,1000.36,VALID,0,VALID,92.3642,VALID,0.104696,VALID,23.2507,VALID,127,VALID,0.618359,
2011-09-30, 02:57:05,VALID,1000.36,VALID,0,VALID,92.0895,VALID,0.104696,VALID,23.35,VALID,127,VALID,0.645312,
2011-09-30, 02:58:05,VALID,1000.35,VALID,0,VALID,91.6928,VALID,0,VALID,23.3872,VALID,127,VALID,0.557422,
2011-09-30, 02:59:05,VALID,1000.34,VALID,0,VALID,91.1816,VALID,0,VALID,23.4475,VALID,127,VALID,0.677344,
2011-09-30, 03:00:05,VALID,1000.36,VALID,0,VALID,90.5102,VALID,0,VALID,23.5469,VALID,127,VALID,0.926562,
2011-09-30, 03:01:05,VALID,1000.35,VALID,0,VALID,89.648,VALID,0,VALID,23.6445,VALID,127,VALID,0.606641,
2011-09-30, 03:02:05,VALID,1000.3,VALID,0,VALID,89.0148,VALID,0,VALID,23.6817,VALID,127,VALID,0.4875,
2011-09-30, 03:03:05,VALID,1000.33,VALID,0,VALID,88.412,VALID,0,VALID,23.7012,VALID,127,VALID,0.390625,
2011-09-30, 03:04:05,VALID,1000.33,VALID,0,VALID,88,VALID,0,VALID,23.7207,VALID,127,VALID,0.464063,
2011-09-30, 03:05:05,VALID,1000.33,VALID,0,VALID,87.5499,VALID,0,VALID,23.7597,VALID,127,VALID,0.557813,
2011-09-30, 03:06:05,VALID,1000.32,VALID,0,VALID,87.2676,VALID,0,VALID,23.8396,VALID,127,VALID,0.0898438,
2011-09-30, 03:07:05,VALID,1000.32,VALID,0,VALID,86.9319,VALID,0,VALID,23.836,VALID,127,VALID,0.444922,
2011-09-30, 03:08:05,VALID,1000.29,VALID,0,VALID,86.6267,VALID,0,VALID,23.8555,VALID,127,VALID,0.632031,
2011-09-30, 03:09:05,VALID,1000.27,VALID,0,VALID,86.3215,VALID,0,VALID,23.914,VALID,127,VALID,0.551562,
2011-09-30, 03:10:05,VALID,1000.28,VALID,0,VALID,86.2452,VALID,0,VALID,23.9744,VALID,127,VALID,0.424609,
2011-09-30, 03:11:04,VALID,1000.27,VALID,0,VALID,85.9934,VALID,0,VALID,23.9726,VALID,127,VALID,0.423438,
2011-09-30, 03:12:04,VALID,1000.31,VALID,0,VALID,85.7264,VALID,0,VALID,24.0329,VALID,127,VALID,0.493359,
2011-09-30, 03:13:04,VALID,1000.34,VALID,0,VALID,85.5662,VALID,0,VALID,24.0311,VALID,127,VALID,0.484375,
2011-09-30, 03:14:04,VALID,1000.35,VALID,0,VALID,85.673,VALID,0,VALID,24.0311,VALID,127,VALID,0.495703,
2011-09-30, 03:15:04,VALID,1000.36,VALID,0,VALID,85.7798,VALID,0,VALID,24.0329,VALID,127,VALID,0.287891,
2011-09-30, 03:16:04,VALID,1000.37,VALID,0,VALID,85.879,VALID,0,VALID,24.0116,VALID,127,VALID,0.242188,
2011-09-30, 03:17:04,VALID,1000.36,VALID,0,VALID,85.7569,VALID,0,VALID,23.9921,VALID,127,VALID,0.491797,
2011-09-30, 03:18:04,VALID,1000.36,VALID,0,VALID,85.5586,VALID,0,VALID,23.9939,VALID,127,VALID,0.633594,
2011-09-30, 03:19:04,VALID,1000.36,VALID,0,VALID,85.4746,VALID,0,VALID,23.9921,VALID,127,VALID,0.412109,
2011-09-30, 03:20:04,VALID,1000.36,VALID,0,VALID,85.4517,VALID,0,VALID,24.0116,VALID,127,VALID,0.531641,
2011-09-30, 03:21:04,VALID,1000.36,VALID,0,VALID,85.5509,VALID,0,VALID,24.0116,VALID,127,VALID,0.290234,
2011-09-30, 03:22:04,VALID,1000.32,VALID,0,VALID,85.9934,VALID,0,VALID,24.0116,VALID,127,VALID,0.357422,
2011-09-30, 03:23:04,VALID,1000.31,VALID,0,VALID,86.5351,VALID,0,VALID,23.9726,VALID,127,VALID,0.467578,
2011-09-30, 03:24:04,VALID,1000.31,VALID,0,VALID,87.0311,VALID,0,VALID,23.914,VALID,127,VALID,0.520312,
2011-09-30, 03:25:04,VALID,1000.31,VALID,0,VALID,87.321,VALID,0,VALID,23.8573,VALID,127,VALID,0.598828,
2011-09-30, 03:26:04,VALID,1000.32,VALID,0,VALID,87.5117,VALID,0,VALID,23.797,VALID,127,VALID,0.557813,
2011-09-30, 03:27:04,VALID,1000.32,VALID,0,VALID,87.672,VALID,0,VALID,23.7775,VALID,127,VALID,0.516406,
2011-09-30, 03:28:04,VALID,1000.35,VALID,0,VALID,87.878,VALID,0,VALID,23.7793,VALID,127,VALID,0.508984,
2011-09-30, 03:29:04,VALID,1000.34,VALID,0,VALID,88.0687,VALID,0,VALID,23.7384,VALID,127,VALID,0.4,
2011-09-30, 03:30:04,VALID,1000.38,VALID,0,VALID,88.2976,VALID,0,VALID,23.7597,VALID,127,VALID,0.150781,
2011-09-30, 03:31:04,VALID,1000.38,VALID,0,VALID,88.5341,VALID,0,VALID,23.7207,VALID,127,VALID,0.0015625,
2011-09-30, 03:32:04,VALID,1000.4,VALID,0,VALID,88.8164,VALID,0,VALID,23.6799,VALID,127,VALID,0,
2011-09-30, 03:33:04,VALID,1000.4,VALID,0,VALID,89.0987,VALID,0,VALID,23.6799,VALID,127,VALID,0.00429688,
2011-09-30, 03:34:04,VALID,1000.39,VALID,0,VALID,89.3505,VALID,0,VALID,23.6604,VALID,127,VALID,0.400391,
2011-09-30, 03:35:04,VALID,1000.38,VALID,0,VALID,89.4878,VALID,0,VALID,23.6427,VALID,127,VALID,0.272266,
2011-09-30, 03:36:04,VALID,1000.39,VALID,0,VALID,89.6099,VALID,0,VALID,23.6019,VALID,127,VALID,0.200391,
2011-09-30, 03:37:04,VALID,1000.37,VALID,0,VALID,89.8159,VALID,0.104696,VALID,23.6036,VALID,127,VALID,0.142578,
2011-09-30, 03:38:04,VALID,1000.37,VALID,0,VALID,89.999,VALID,0,VALID,23.5841,VALID,127,VALID,0.183984,
2011-09-30, 03:39:04,VALID,1000.36,VALID,0,VALID,90.0906,VALID,0.104696,VALID,23.5433,VALID,127,VALID,0.146875,
2011-09-30, 03:40:04,VALID,1000.37,VALID,0,VALID,90.1287,VALID,0.104696,VALID,23.5433,VALID,127,VALID,0.194922,
2011-09-30, 03:41:04,VALID,1000.39,VALID,0,VALID,90.0066,VALID,0,VALID,23.5043,VALID,127,VALID,0.242969,
2011-09-30, 03:42:04,VALID,1000.39,VALID,0,VALID,89.7854,VALID,0,VALID,23.5043,VALID,127,VALID,0.35,
2011-09-30, 03:43:04,VALID,1000.38,VALID,0,VALID,89.5717,VALID,0,VALID,23.5043,VALID,127,VALID,0.267969,
2011-09-30, 03:44:04,VALID,1000.4,VALID,0,VALID,89.4115,VALID,0.104696,VALID,23.5043,VALID,127,VALID,0.384766,